sat.trackr.live / text

‹ back to catalog

FLOCK 4BE-25

NORAD 60487 · 2024-149V

PAYLOAD ACTIVE UNKNOWN

§ Identity

Operator
Country
US
Launch date
2024-08-16
Launch site
AFWTR
Launch vehicle
Mass (kg)
RCS (m²)

Purposes: earth_obs

External: N2YO · Heavens-Above · Gunter

§ Orbital elements

Epoch: 2026-05-25T04:38:57.642144Z

Period
93.62 min
Inclination
97.3796°
Eccentricity
0.0001724
Mean motion
15.38147854 rev/d
Perigee alt
450.4 km
Apogee alt
452.8 km
Semi-major
6,829.7 km
B*
3.6355e-4
RAAN
228.1994°
Arg perigee
31.4798°
Mean anomaly
328.6550°
Rev number
9,870

§ Raw data

FLOCK 4BE-251 60487U 24149V   26145.19372271  .00013581  00000+0  36355-3 0  99972 60487  97.3796 228.1994 0001724  31.4798 328.6550 15.38147854 98708

JSON: /api/v1/satellites/60487 · /tle

For live sub-satellite position, see the globe view (requires WebGL).

§ Visibility from observer

Set your observer location to see the next 7 days of passes ≥ 10°. The values pass through the URL so the page stays shareable.

No JS? Fill the form by hand. The geolocation button needs JavaScript.